EW3263 Weather Reports


Display with metric or nautical units.
time (UTC)temp
F
wind
direction
speed
MPH
gust
MPH
rain 1hr
in
rain 24hr
in
rain mn
in
humidity
%
barometer
mb
20260510070048 55 0.0 0.0 0.00 0.00 0.00 87 1018.5
20260510064542 55 0.0 0.0 0.00 0.00 0.00 86 1018.5
20260510063037 56 0.0 0.0 0.00 0.00 0.00 86 1018.6
20260510061533 56 0.0 0.0 0.00 0.00 0.00 86 1018.7
20260510060030 57 0.0 0.0 0.00 0.00 0.00 85 1018.6
20260510054528 57 0.0 0.0 0.00 0.00 0.00 84 1018.6
20260510053020 58 0.0 0.0 0.00 0.00 0.00 83 1018.6
20260510051527 58 0.0 0.0 0.00 0.00 0.00 82 1018.5
20260510050011 59 0.0 0.0 0.00 0.00 0.00 80 1018.6
20260510044509 60 0.0 0.0 0.00 0.00 0.00 77 1018.4
20260510043006 61 0.0 0.0 0.00 0.00 0.00 76 1018.4
20260510041635 61 0.0 0.0 0.00 0.00 0.00 75 1018.3
20260510040053 62 0.0 0.0 0.00 0.00 0.00 74 1018.2
20260510034556 62 0.0 0.0 0.00 0.00 0.00 72 1018.2
20260510033050 63 0.0 0.0 0.00 0.00 0.00 70 1018.0
20260510031550 64 0.0 0.0 0.00 0.00 0.00 68 1017.7
20260510030038 65 0.0 0.0 0.00 0.00 0.00 65 1017.5
20260510024536 67 0.0 0.0 0.00 0.00 0.00 62 1017.6
20260510023028 68 0.0 0.0 0.00 0.00 0.00 59 1017.5
20260510021530 70 0.0 0.0 0.00 0.00 0.00 55 1017.4
20260510020020 71 0.0 0.0 0.00 0.00 0.00 53 1017.4
20260510014516 72 0.0 0.0 0.00 0.00 0.00 50 1017.3
20260510013010 74 0.0 0.0 0.00 0.00 0.00 47 1017.4
20260510011506 75 0.0 0.0 0.00 0.00 0.00 46 1017.2
20260510010001 76 0.0 0.0 0.00 0.00 0.00 45 1017.3
20260510004604 76 0.0 0.0 0.00 0.00 0.00 44 1017.3
20260510003052 77 0.0 0.0 0.00 0.00 0.00 45 1017.3
20260510001547 77 0.0 0.0 0.00 0.00 0.00 43 1017.3
20260510000044 77 0.0 0.0 0.00 0.00 0.00 43 1017.2
20260509234539 77 0.0 0.0 0.00 0.00 0.00 43 1017.2
20260509233035 78 0.0 0.0 0.00 0.00 0.00 43 1017.2
20260509231530 77 0.0 0.0 0.00 0.00 0.00 44 1017.2
20260509230026 78 0.0 0.0 0.00 0.00 0.00 43 1017.3
20260509224522 79 0.0 0.0 0.00 0.00 0.00 43 1017.4
20260509223020 79 0.0 0.0 0.00 0.00 0.00 41 1017.4
20260509221513 79 0.0 0.0 0.00 0.00 0.00 40 1017.5
20260509220009 79 0.0 0.0 0.00 0.00 0.00 41 1017.7
20260509214504 80 0.0 0.0 0.00 0.00 0.00 43 1017.8
20260509213100 80 0.0 0.0 0.00 0.00 0.00 44 1017.8
20260509211600 81 0.0 0.0 0.00 0.00 0.00 43 1017.9
20260509210100 82 0.0 0.0 0.00 0.00 0.00 42 1017.9
20260509204547 83 0.0 0.0 0.00 0.00 0.00 40 1017.9
20260509203042 83 0.0 0.0 0.00 0.00 0.00 39 1018.1
20260509201538 82 0.0 0.0 0.00 0.00 0.00 40 1018.2
20260509200036 81 0.0 0.0 0.00 0.00 0.00 40 1018.3
20260509194532 81 0.0 0.0 0.00 0.00 0.00 40 1018.3
20260509193025 81 0.0 0.0 0.00 0.00 0.00 43 1018.4
20260509191520 80 0.0 0.0 0.00 0.00 0.00 44 1018.4
20260509190017 79 0.0 0.0 0.00 0.00 0.00 47 1018.6
20260509184516 79 0.0 0.0 0.00 0.00 0.00 46 1018.6
20260509183007 78 0.0 0.0 0.00 0.00 0.00 46 1018.7
20260509181503 76 0.0 0.0 0.00 0.00 0.00 48 1018.8
20260509180059 75 0.0 0.0 0.00 0.00 0.00 50 1018.9
20260509174555 75 0.0 0.0 0.00 0.00 0.00 50 1019.0
20260509173116 73 0.0 0.0 0.00 0.00 0.00 54 1018.9
20260509171547 72 0.0 0.0 0.00 0.00 0.00 56 1019.0
20260509170052 71 0.0 0.0 0.00 0.00 0.00 58 1018.9
20260509164537 69 0.0 0.0 0.00 0.00 0.00 60 1018.9
20260509163032 68 0.0 0.0 0.00 0.00 0.00 65 1019.0
20260509161528 65 0.0 0.0 0.00 0.00 0.00 68 1019.0
20260509160024 65 0.0 0.0 0.00 0.00 0.00 70 1019.0
20260509154519 65 0.0 0.0 0.00 0.00 0.00 71 1018.9
20260509153027 64 0.0 0.0 0.00 0.00 0.00 72 1018.9
20260509151510 62 0.0 0.0 0.00 0.00 0.00 73 1018.8
20260509150009 61 0.0 0.0 0.00 0.00 0.00 76 1019.0
20260509144502 59 0.0 0.0 0.00 0.00 0.00 79 1018.9
20260509143106 56 0.0 0.0 0.00 0.00 0.00 81 1019.0
20260509141554 54 0.0 0.0 0.00 0.00 0.00 84 1019.1
20260509140049 51 0.0 0.0 0.00 0.00 0.00 87 1018.9
20260509134547 50 0.0 0.0 0.00 0.00 0.00 87 1018.7
20260509133040 50 0.0 0.0 0.00 0.00 0.00 87 1018.6
20260509131543 50 0.0 0.0 0.00 0.00 0.00 89 1018.7
20260509130054 49 0.0 0.0 0.00 0.00 0.00 87 1018.7
20260509124533 50 0.0 0.0 0.00 0.00 0.00 85 1018.6
20260509123030 50 0.0 0.0 0.00 0.00 0.00 86 1018.4
20260509121518 51 0.0 0.0 0.00 0.00 0.00 85 1018.4
20260509120016 51 0.0 0.0 0.00 0.00 0.00 83 1018.4
20260509114509 52 0.0 0.0 0.00 0.00 0.00 81 1018.4
20260509113006 52 0.0 0.0 0.00 0.00 0.00 81 1018.4
20260509111501 52 0.0 0.0 0.00 0.00 0.00 81 1018.4
20260509110101 53 0.0 0.0 0.00 0.00 0.00 81 1018.4
20260509104553 53 0.0 0.0 0.00 0.00 0.00 81 1018.4
20260509103050 53 0.0 0.0 0.00 0.00 0.00 80 1018.4
20260509101556 54 0.0 0.0 0.00 0.00 0.00 82 1018.6
20260509100039 54 0.0 0.0 0.00 0.00 0.00 81 1018.7
20260509094535 54 0.0 0.0 0.00 0.00 0.00 81 1018.9
20260509093031 55 0.0 0.0 0.00 0.00 0.00 82 1018.8
20260509091530 55 0.0 0.0 0.00 0.00 0.00 80 1018.8
20260509090024 55 0.0 0.0 0.00 0.00 0.00 81 1018.9
20260509084521 55 0.0 0.0 0.00 0.00 0.00 84 1019.1
20260509083016 55 0.0 0.0 0.00 0.00 0.00 85 1019.3
20260509081508 56 0.0 0.0 0.00 0.00 0.00 85 1019.4
20260509080005 56 0.0 0.0 0.00 0.00 0.00 85 1019.4
20260509074501 56 0.0 0.0 0.00 0.00 0.00 86 1019.6
20260509073056 56 0.0 0.0 0.00 0.00 0.00 85 1019.7
20260509071552 57 0.0 0.0 0.00 0.00 0.00 85 1019.8